Wisconsin Rapids, WI

3:39 AM CDT on October 14, 2019 (GMT -0500)
Alexander Field South Wood County

Weather History for KISW - September, 2019

Change the Weather History Date:

Tuesday, September 17, 2019

  Actual Average Record
Temperature  
Mean Temperature 72 °F -  
Max Temperature 84 °F 69 °F 97 °F (1948)
Min Temperature 61 °F 46 °F 31 °F (1959)
Cooling Degree Days 8    
Growing Degree Days 22 (Base 50)    
Moisture  
Dew Point 61 °F    
Average Humidity 73    
Maximum Humidity 90    
Minimum Humidity 47    
Precipitation  
Precipitation 0.00 in - - ()
Sea Level Pressure  
Sea Level Pressure 30.11 in    
Wind  
Wind Speed 6 mph (SSE)    
Max Wind Speed 12 mph    
Max Gust Speed 21 mph    
Visibility 10 miles    
Events      
Averages and records for this station are not official NWS values.
T = Trace of Precipitation, MM = Missing Value Source: NWS Daily Summary

Daily Weather History Graph

Daily Weather History Graph

Search for Another Location

Airport or City:

Astronomy

Sep. 17, 2019 Rise Set
Actual Time 6:40 AM CDT 7:06 PM CDT
Civil Twilight 6:11 AM CDT 7:35 PM CDT
Nautical Twilight 5:36 AM CDT 8:09 PM CDT
Astronomical Twilight 5:01 AM CDT 8:45 PM CDT
Moon 9:02 PM CDT (9/17) 9:51 AM CDT (9/17)
Length of Visible Light 13h 24m
Length of Day
12h 26m
Waning Gibbous, 89% of the Moon is Illuminated
Sep 17
Waning Gibbous
Sep 21
Last Quarter
Sep 28
New
Oct 5
First Quarter
Oct 13
Full

Hourly Weather History & Observations

Time (CDT) Temp. Heat Index Dew Point Humidity Pressure Visibility Wind Dir Wind Speed Gust Speed Precip Events Conditions
12:54 AM 64.9 °F - 61.0 °F 87% 30.12 in 10.0 mi SSE 5.8 mph - N/A   Clear
1:54 AM 64.0 °F - 61.0 °F 90% 30.13 in 10.0 mi SSE 5.8 mph - N/A   Clear
2:54 AM 64.0 °F - 61.0 °F 90% 30.12 in 10.0 mi SE 5.8 mph - N/A   Clear
3:54 AM 64.9 °F - 61.0 °F 87% 30.12 in 10.0 mi SE 8.1 mph - N/A   Clear
4:54 AM 64.0 °F - 59.0 °F 84% 30.12 in 10.0 mi South 3.5 mph - N/A   Clear
5:54 AM 61.0 °F - 57.9 °F 90% 30.14 in 10.0 mi Calm Calm - N/A   Clear
6:54 AM 61.0 °F - 57.0 °F 87% 30.15 in 10.0 mi South 3.5 mph - N/A   Clear
7:54 AM 64.0 °F - 57.0 °F 78% 30.16 in 10.0 mi SSE 6.9 mph - N/A   Clear
8:54 AM 66.9 °F - 57.9 °F 73% 30.16 in 10.0 mi SE 9.2 mph - N/A   Clear
9:54 AM 70.0 °F - 60.1 °F 71% 30.16 in 10.0 mi SE 6.9 mph - N/A   Clear
10:54 AM 75.0 °F - 62.1 °F 64% 30.15 in 10.0 mi SSE 6.9 mph - N/A   Clear
11:54 AM 79.0 °F - 62.1 °F 56% 30.14 in 10.0 mi Variable 6.9 mph - N/A   Clear
12:54 PM 82.0 °F 82.4 °F 60.1 °F 47% 30.11 in 10.0 mi South 8.1 mph 20.7 mph N/A   Clear
1:54 PM 82.9 °F 84.0 °F 63.0 °F 51% 30.09 in 10.0 mi South 8.1 mph - N/A   Clear
2:54 PM 84.0 °F 84.9 °F 63.0 °F 49% 30.07 in 10.0 mi SE 10.4 mph - N/A   Clear
3:54 PM 82.9 °F 83.7 °F 62.1 °F 49% 30.05 in 10.0 mi SSE 11.5 mph - N/A   Clear
4:54 PM 80.1 °F 81.2 °F 62.1 °F 54% 30.06 in 10.0 mi SSE 6.9 mph - N/A   Clear
5:54 PM 78.1 °F - 64.0 °F 62% 30.06 in 10.0 mi SSE 5.8 mph - N/A   Clear
6:54 PM 75.0 °F - 63.0 °F 66% 30.06 in 10.0 mi SSE 4.6 mph - N/A   Clear
7:54 PM 70.0 °F - 64.0 °F 81% 30.07 in 10.0 mi SE 4.6 mph - N/A   Clear
8:54 PM 70.0 °F - 63.0 °F 78% 30.08 in 10.0 mi SSE 5.8 mph - N/A   Clear
9:54 PM 69.1 °F - 63.0 °F 81% 30.08 in 10.0 mi SSE 6.9 mph - N/A   Clear
10:54 PM 68.0 °F - 63.0 °F 84% 30.06 in 10.0 mi SSE 6.9 mph - N/A   Clear
11:54 PM 66.9 °F - 63.0 °F 87% 30.06 in 10.0 mi South 6.9 mph - N/A   Clear